period_start,C,m1,H,J0,J1,J2,J3,J4,J5,JA,JB,JC,JD,JJ,JK,JN,#
2017-09-08 00:04:25,-0.00,0.14,0.00,24.19,27.26,29.96,13.86,41.23,1018.57,2033.02,3509.97,3054.00,3493.01,600.24,595.00,17.98,0000 0000 0000 0000 000000
2017-09-08 00:09:27,-0.00,0.14,0.00,24.11,27.27,29.96,13.81,41.29,1018.57,2033.00,3509.98,3054.00,3493.00,600.34,595.28,18.03,0000 0000 0000 0000 000000
2017-09-08 00:14:28,-0.00,0.14,0.00,24.15,27.27,29.98,13.74,40.95,1018.57,2033.02,3509.93,3054.00,3493.00,599.56,594.59,18.08,0000 0000 0000 0000 000000
2017-09-08 00:19:29,0.01,0.14,0.00,24.14,27.27,29.95,13.82,41.63,1018.57,2033.02,3509.36,3054.00,3493.00,599.75,594.78,18.13,0000 0000 0000 0000 000000
2017-09-08 00:24:30,0.00,0.14,0.00,24.12,27.27,29.95,13.74,41.19,1018.57,2033.02,3509.43,3054.00,3493.00,600.06,594.92,18.18,0000 0000 0000 0000 000000
2017-09-08 00:29:31,0.00,0.14,0.00,24.14,27.27,29.97,13.79,41.17,1018.57,2033.00,3509.13,3054.00,3492.99,599.95,594.74,18.23,0000 0000 0000 0000 000000
2017-09-08 00:34:33,0.00,0.14,0.00,24.13,27.27,29.96,13.78,41.18,1018.59,2033.03,3509.00,3053.96,3492.97,600.03,594.88,18.28,0000 0000 0000 0000 000000
2017-09-08 00:39:34,0.01,0.14,0.00,24.15,27.28,29.97,13.76,41.14,1018.58,2033.06,3509.00,3053.98,3492.93,599.48,594.36,18.33,0000 0000 0000 0000 000000
2017-09-08 00:44:35,0.00,0.14,0.00,24.12,27.29,29.98,13.82,41.16,1018.57,2033.02,3509.00,3053.98,3492.89,599.90,594.83,18.38,0000 0000 0000 0000 000000
2017-09-08 00:49:36,0.01,0.14,0.00,24.00,27.29,29.96,13.80,41.28,1018.57,2033.02,3509.00,3053.96,3492.49,599.86,595.04,18.43,0000 0000 0000 0000 000000
2017-09-08 00:54:38,0.00,0.14,0.00,24.07,27.30,29.97,13.74,41.27,1018.58,2033.01,3508.99,3053.91,3492.15,599.89,594.98,18.48,0000 0000 0000 0000 000000
2017-09-08 00:59:39,0.02,0.14,0.00,24.09,27.30,29.98,13.71,41.20,1018.59,2033.00,3508.55,3053.45,3492.02,600.07,595.17,18.53,0000 0000 0000 0000 000000
2017-09-08 01:04:40,0.01,0.14,0.00,24.13,27.30,29.98,13.82,41.35,1018.60,2033.00,3508.08,3053.10,3492.00,599.96,594.85,18.58,0000 0000 0000 0000 000000
2017-09-08 01:09:42,-0.00,0.14,0.00,24.15,27.30,29.98,13.87,41.62,1018.61,2033.00,3508.08,3053.05,3491.98,600.29,595.11,18.63,0000 0000 0000 0000 000000
2017-09-08 01:14:43,0.00,0.14,0.00,24.06,27.30,29.99,13.86,41.33,1018.70,2033.00,3508.05,3053.06,3491.98,599.94,595.14,18.68,0000 0000 0000 0000 000000
2017-09-08 01:19:44,0.00,0.14,0.00,24.07,27.32,29.98,13.83,41.63,1018.85,2033.00,3508.01,3053.01,3491.89,600.15,595.26,18.73,0000 0000 0000 0000 000000
2017-09-08 01:24:45,0.00,0.14,0.00,24.15,27.32,29.98,13.77,41.43,1018.87,2033.00,3508.00,3053.00,3491.58,600.06,595.10,18.78,0000 0000 0000 0000 000000
2017-09-08 01:29:46,0.00,0.14,0.00,24.11,27.32,30.00,13.81,41.60,1019.01,2032.99,3507.99,3053.00,3491.25,600.24,595.40,18.83,0000 0000 0000 0000 000000
2017-09-08 01:34:48,0.00,0.14,0.00,24.03,27.32,30.01,13.83,41.37,1019.05,2032.99,3507.92,3053.00,3491.08,600.04,595.48,18.88,0000 0000 0000 0000 000000
2017-09-08 01:39:49,0.01,0.14,0.00,23.95,27.33,30.02,13.85,41.05,1019.06,2032.99,3507.64,3053.00,3491.04,599.87,595.31,18.93,0000 0000 0000 0000 000000
2017-09-08 01:44:50,0.00,0.14,0.00,23.95,27.35,30.04,13.91,41.33,1019.06,2032.99,3507.41,3052.99,3491.00,600.25,595.79,18.98,0000 0000 0000 0000 000000
2017-09-08 01:49:52,0.00,0.14,0.00,23.99,27.35,30.03,13.77,41.35,1019.06,2032.99,3507.35,3052.98,3491.00,599.76,595.21,19.03,0000 0000 0000 0000 000000
2017-09-08 01:54:53,0.01,0.14,0.00,23.97,27.35,30.04,13.82,41.33,1019.06,2032.99,3507.05,3052.96,3491.00,600.05,595.54,19.08,0000 0000 0000 0000 000000
2017-09-08 01:59:54,0.00,0.14,0.00,24.00,27.37,30.03,13.79,41.20,1019.08,2032.99,3507.00,3052.93,3490.97,599.68,595.08,19.13,0000 0000 0000 0000 000000
2017-09-08 02:04:56,0.01,0.14,0.00,24.01,27.37,30.02,13.91,41.33,1019.06,2032.99,3507.00,3052.68,3490.96,600.17,595.50,19.18,0000 0000 0000 0000 000000
2017-09-08 02:09:57,0.01,0.14,0.00,24.02,27.37,30.04,13.76,41.04,1019.06,2032.99,3506.99,3052.61,3490.90,599.68,595.14,19.23,0000 0000 0000 0000 000000
2017-09-08 02:14:58,0.01,0.14,0.00,23.99,27.39,30.05,13.87,41.38,1019.07,2032.98,3506.98,3052.32,3490.66,600.63,595.93,19.28,0000 0000 0000 0000 000000
2017-09-08 02:20:00,0.01,0.14,0.00,24.01,27.40,30.05,13.85,41.49,1019.07,2032.98,3506.95,3052.19,3490.39,599.88,595.40,19.33,0000 0000 0000 0000 000000
2017-09-08 02:25:01,0.00,0.14,0.00,24.01,27.40,30.05,13.79,41.51,1019.07,2032.96,3506.66,3052.03,3490.05,599.82,595.11,19.38,0000 0000 0000 0000 000000
2017-09-08 02:30:02,-0.00,0.14,0.00,24.07,27.40,30.07,13.73,41.15,1019.09,2032.98,3506.85,3052.09,3490.08,599.72,595.10,19.43,0000 0000 0000 0000 000000
2017-09-08 02:35:03,0.01,0.14,0.00,24.13,27.41,30.07,13.84,40.95,1019.10,2032.97,3506.63,3052.04,3490.04,599.75,594.95,19.48,0000 0000 0000 0000 000000
2017-09-08 02:40:05,-0.00,0.14,0.00,24.02,27.42,30.09,13.77,41.10,1019.10,2032.94,3506.72,3052.02,3490.00,599.89,595.40,19.53,0000 0000 0000 0000 000000
2017-09-08 02:45:06,-0.01,0.14,0.00,24.02,27.42,30.07,13.80,41.21,1019.11,2032.79,3506.39,3052.01,3490.00,599.78,595.11,19.58,0000 0000 0000 0000 000000
2017-09-08 02:50:07,-0.02,0.14,0.00,24.04,27.42,30.06,13.83,41.16,1019.23,2032.55,3506.11,3052.01,3490.00,599.93,595.43,19.63,0000 0000 0000 0000 000000
2017-09-08 02:55:08,-0.01,0.14,0.00,24.02,27.42,30.10,13.89,41.35,1019.47,2032.36,3506.08,3052.01,3489.99,600.13,595.79,19.69,0000 0000 0000 0000 000000
2017-09-08 03:00:09,0.01,0.14,0.00,24.05,27.44,30.10,13.83,41.24,1019.50,2032.44,3506.10,3052.01,3489.99,600.05,595.65,19.74,0000 0000 0000 0000 000000
2017-09-08 03:05:11,0.01,0.14,0.00,24.01,27.45,30.11,13.80,41.28,1019.54,2032.53,3506.02,3052.02,3489.98,600.14,595.79,19.79,0000 0000 0000 0000 000000
2017-09-08 03:10:12,0.02,0.14,0.00,24.06,27.45,30.11,13.82,41.23,1019.55,2032.80,3505.99,3052.00,3489.95,600.09,595.74,19.84,0000 0000 0000 0000 000000
2017-09-08 03:15:13,0.00,0.15,0.00,24.05,27.45,30.11,13.85,41.25,1019.55,2032.88,3505.96,3052.00,3489.88,600.33,595.96,19.89,0000 0000 0000 0000 000000
2017-09-08 03:20:15,-0.00,0.15,0.00,24.01,27.45,30.12,13.95,41.52,1019.55,2032.83,3505.96,3052.00,3489.71,600.47,596.14,19.94,0000 0000 0000 0000 000000
2017-09-08 03:25:16,0.00,0.14,0.00,24.04,27.46,30.11,13.84,41.13,1019.55,2032.81,3505.99,3052.00,3489.71,599.81,595.39,19.99,0000 0000 0000 0000 000000
2017-09-08 03:30:17,-0.04,0.14,0.00,24.07,27.47,30.10,13.88,41.27,1019.55,2032.49,3505.97,3052.00,3489.32,600.63,596.22,20.04,0000 0000 0000 0000 000000
2017-09-08 03:35:18,0.03,0.14,0.00,24.01,27.47,30.12,13.82,41.12,1019.55,2032.38,3505.45,3052.00,3489.04,599.88,595.59,20.09,0000 0000 0000 0000 000000
2017-09-08 03:40:20,0.01,0.15,0.00,24.03,27.47,30.14,13.75,40.94,1019.55,2032.65,3505.02,3051.98,3489.01,599.73,595.42,20.14,0000 0000 0000 0000 000000
2017-09-08 03:45:21,0.01,0.14,0.00,24.04,27.47,30.14,13.79,40.88,1019.55,2032.56,3505.00,3051.96,3489.00,600.23,595.89,20.19,0000 0000 0000 0000 000000
2017-09-08 03:50:22,-0.02,0.15,0.00,24.04,27.47,30.12,13.77,40.96,1019.56,2032.53,3505.00,3051.88,3489.00,599.82,595.49,20.24,0000 0000 0000 0000 000000
2017-09-08 03:55:23,-0.01,0.14,0.00,24.06,27.47,30.11,13.78,40.98,1019.55,2032.42,3504.99,3051.76,3488.99,599.98,595.59,20.29,0000 0000 0000 0000 000000
2017-09-08 04:00:24,-0.01,0.14,0.00,24.11,27.48,30.12,13.83,41.08,1019.56,2032.07,3504.96,3051.28,3488.91,600.76,596.35,20.34,0000 0000 0000 0000 000000
2017-09-08 04:05:25,0.01,0.14,0.00,24.09,27.49,30.13,13.85,41.23,1019.57,2032.08,3504.77,3051.11,3488.65,599.97,595.61,20.39,0000 0000 0000 0000 000000
2017-09-08 04:10:27,0.00,0.14,0.00,24.08,27.50,30.11,13.79,41.07,1019.56,2032.11,3504.68,3051.16,3488.74,599.56,595.11,20.44,0000 0000 0000 0000 000000
2017-09-08 04:15:28,0.00,0.14,0.00,24.08,27.50,30.11,13.86,41.08,1019.58,2032.10,3504.63,3051.12,3488.63,600.81,596.37,20.49,0000 0000 0000 0000 000000
2017-09-08 04:20:29,0.00,0.14,0.00,24.12,27.50,30.11,13.81,41.09,1019.61,2032.02,3504.60,3051.09,3488.18,599.91,595.44,20.54,0000 0000 0000 0000 000000
2017-09-08 04:25:31,0.01,0.14,0.00,24.13,27.50,30.09,13.82,41.17,1019.78,2032.06,3504.43,3051.09,3488.21,600.04,595.68,20.59,0000 0000 0000 0000 000000
2017-09-08 04:30:32,0.01,0.15,0.00,24.10,27.50,30.10,13.79,40.99,1019.68,2032.16,3504.05,3051.05,3488.11,599.94,595.56,20.64,0000 0000 0000 0000 000000
2017-09-08 04:35:33,-0.01,0.15,0.00,24.08,27.50,30.10,13.84,41.22,1019.85,2032.14,3504.12,3051.07,3488.10,600.11,595.76,20.69,0000 0000 0000 0000 000000
2017-09-08 04:40:34,-0.00,0.15,0.00,24.11,27.50,30.10,13.91,41.15,1019.94,2032.07,3504.13,3051.06,3488.03,600.40,596.16,20.74,0000 0000 0000 0000 000000
2017-09-08 04:45:36,0.02,0.15,0.00,24.09,27.50,30.09,13.83,41.08,1020.01,2032.18,3504.01,3051.02,3488.02,599.97,595.81,20.79,0000 0000 0000 0000 000000
2017-09-08 04:50:37,-0.01,0.15,0.00,24.09,27.50,30.09,13.86,41.19,1020.01,2032.08,3504.01,3051.01,3488.00,600.30,596.10,20.84,0000 0000 0000 0000 000000
2017-09-08 04:55:39,-0.00,0.15,0.00,24.07,27.50,30.10,13.78,40.99,1020.02,2032.02,3504.01,3051.01,3488.00,599.93,595.89,20.89,0000 0000 0000 0000 000000
2017-09-08 05:00:40,0.02,0.15,0.00,24.10,27.50,30.10,13.79,41.03,1020.03,2032.10,3503.75,3051.00,3488.00,599.89,595.72,20.94,0000 0000 0000 0000 000000
2017-09-08 05:05:42,0.01,0.15,0.00,24.11,27.50,30.10,13.88,40.88,1020.05,2032.25,3503.70,3051.00,3487.99,600.19,595.96,20.99,0000 0000 0000 0000 000000
2017-09-08 05:10:43,-0.00,0.15,0.00,24.07,27.50,30.09,13.86,40.98,1020.05,2032.23,3503.52,3051.00,3487.99,599.90,595.60,21.04,0000 0000 0000 0000 000000
2017-09-08 05:15:44,0.01,0.15,0.00,24.08,27.50,30.08,13.84,40.81,1020.06,2032.26,3503.18,3051.00,3487.99,600.40,596.16,21.09,0000 0000 0000 0000 000000
2017-09-08 05:20:46,0.00,0.15,0.00,24.08,27.50,30.07,13.79,40.86,1020.06,2032.34,3503.03,3050.99,3487.95,600.33,596.23,21.14,0000 0000 0000 0000 000000
2017-09-08 05:25:47,0.00,0.15,0.00,24.09,27.50,30.08,13.81,40.81,1020.12,2032.33,3502.98,3050.98,3487.88,599.80,595.62,21.19,0000 0000 0000 0000 000000
2017-09-08 05:30:49,-0.01,0.15,0.00,24.11,27.50,30.08,13.75,40.81,1020.21,2032.32,3502.98,3050.98,3487.74,599.75,595.67,21.24,0000 0000 0000 0000 000000
2017-09-08 05:35:50,-0.00,0.15,0.00,24.09,27.50,30.09,13.82,40.94,1020.31,2032.29,3502.97,3050.98,3487.61,599.94,595.89,21.29,0000 0000 0000 0000 000000
2017-09-08 05:40:51,0.01,0.15,0.00,24.08,27.50,30.09,13.87,40.86,1020.39,2032.23,3502.97,3050.99,3487.56,599.84,595.98,21.34,0000 0000 0000 0000 000000
2017-09-08 05:45:52,0.01,0.15,0.00,24.11,27.50,30.09,13.89,40.89,1020.51,2032.24,3502.76,3050.96,3487.20,600.23,596.25,21.39,0000 0000 0000 0000 000000
2017-09-08 05:50:53,-0.01,0.15,0.00,24.12,27.50,30.09,13.85,40.85,1020.52,2032.10,3502.78,3050.93,3487.05,599.96,596.06,21.44,0000 0000 0000 0000 000000
2017-09-08 05:55:54,0.00,0.15,0.00,24.09,27.50,30.08,13.86,40.91,1020.52,2032.08,3502.66,3050.95,3487.06,599.96,596.12,21.49,0000 0000 0000 0000 000000
2017-09-08 06:00:55,-0.01,0.15,0.00,24.12,27.50,30.09,13.85,40.88,1020.52,2032.06,3502.70,3050.95,3487.05,599.87,595.96,21.54,0000 0000 0000 0000 000000
2017-09-08 06:05:56,0.01,0.15,0.00,24.09,27.50,30.09,13.82,40.87,1020.52,2032.03,3502.34,3050.84,3487.01,599.87,596.01,21.59,0000 0000 0000 0000 000000
2017-09-08 06:10:58,0.00,0.15,0.00,24.08,27.50,30.06,13.87,40.87,1020.54,2032.02,3502.12,3050.77,3487.00,600.30,596.41,21.64,0000 0000 0000 0000 000000
2017-09-08 06:15:59,0.01,0.15,0.00,24.13,27.50,30.08,13.84,41.05,1020.53,2032.01,3502.02,3050.47,3486.99,599.74,595.77,21.69,0000 0000 0000 0000 000000
2017-09-08 06:21:00,-0.00,0.15,0.00,24.11,27.50,30.07,13.84,40.91,1020.53,2032.02,3502.01,3050.42,3486.99,600.09,596.24,21.74,0000 0000 0000 0000 000000
2017-09-08 06:26:01,0.00,0.15,0.00,24.10,27.50,30.08,13.80,41.03,1020.54,2032.02,3502.00,3050.35,3486.98,600.10,596.26,21.79,0000 0000 0000 0000 000000
2017-09-08 06:31:02,0.03,0.15,0.00,24.08,27.50,30.09,13.79,41.02,1020.56,2032.02,3501.25,3050.02,3486.31,599.79,596.15,21.84,0000 0000 0000 0000 000000
2017-09-08 06:36:04,0.00,0.15,0.00,24.09,27.50,30.09,13.83,40.94,1020.57,2032.05,3501.01,3050.00,3486.07,600.37,596.46,21.89,0000 0000 0000 0000 000000
2017-09-08 06:41:05,-0.00,0.15,0.00,24.11,27.50,30.09,13.86,41.08,1020.55,2032.03,3501.02,3050.00,3486.01,600.38,596.45,21.94,0000 0000 0000 0000 000000
2017-09-08 06:46:07,0.00,0.15,0.00,24.10,27.50,30.09,13.87,40.97,1020.66,2032.01,3501.10,3050.00,3486.05,599.92,596.18,21.99,0000 0000 0000 0000 000000
2017-09-08 06:51:08,0.00,0.15,0.00,24.10,27.50,30.08,13.88,40.98,1020.79,2032.02,3501.04,3050.00,3486.02,600.18,596.47,22.04,0000 0000 0000 0000 000000
2017-09-08 06:56:10,0.00,0.15,0.00,24.07,27.50,30.09,13.78,40.85,1020.91,2032.02,3501.06,3050.00,3486.00,600.24,596.63,22.09,0000 0000 0000 0000 000000
2017-09-08 07:01:11,0.00,0.15,0.00,24.08,27.50,30.09,13.83,40.92,1020.96,2032.03,3501.00,3050.00,3486.00,600.09,596.58,22.14,0000 0000 0000 0000 000000
2017-09-08 07:06:12,-0.00,0.15,0.00,24.12,27.50,30.08,13.85,40.79,1020.94,2032.03,3501.00,3050.00,3486.00,600.19,596.51,22.19,0000 0000 0000 0000 000000
2017-09-08 07:11:14,0.00,0.15,0.00,24.08,27.50,30.09,13.80,40.90,1020.86,2032.01,3500.54,3049.95,3485.96,599.93,596.29,22.24,0000 0000 0000 0000 000000
2017-09-08 07:16:15,0.00,0.15,0.00,24.04,27.50,30.09,13.88,41.22,1020.89,2032.01,3500.12,3049.95,3485.94,600.20,596.65,22.29,0000 0000 0000 0000 000000
2017-09-08 07:21:16,0.01,0.15,0.00,24.08,27.50,30.09,13.82,40.98,1020.71,2032.02,3500.04,3049.92,3485.90,600.04,596.30,22.34,0000 0000 0000 0000 000000
2017-09-08 07:26:17,0.01,0.15,0.00,24.09,27.50,30.08,13.77,41.12,1020.67,2032.01,3500.02,3049.77,3485.42,599.82,596.13,22.39,0000 0000 0000 0000 000000
2017-09-08 07:31:19,-0.01,0.15,0.00,24.10,27.50,30.07,13.92,40.84,1020.68,2032.01,3500.06,3049.87,3485.36,600.36,596.51,22.44,0000 0000 0000 0000 000000
2017-09-08 07:36:20,0.00,0.15,0.00,24.08,27.50,30.08,13.79,40.84,1020.73,2032.01,3500.03,3049.92,3485.53,599.94,596.16,22.49,0000 0000 0000 0000 000000
2017-09-08 07:41:21,0.01,0.15,0.00,24.11,27.50,30.09,13.76,40.91,1020.69,2032.01,3500.01,3049.85,3485.24,599.81,596.05,22.54,0000 0000 0000 0000 000000
2017-09-08 07:46:22,0.00,0.15,0.00,24.09,27.50,30.09,13.79,41.00,1020.76,2032.00,3500.01,3049.74,3485.06,599.89,596.20,22.59,0000 0000 0000 0000 000000
2017-09-08 07:51:24,0.01,0.15,0.00,24.10,27.50,30.08,13.84,40.99,1020.91,2032.00,3500.00,3049.67,3485.02,599.97,596.33,22.64,0000 0000 0000 0000 000000
2017-09-08 07:56:25,-0.00,0.15,0.00,24.09,27.50,30.09,13.79,40.86,1020.90,2032.00,3500.00,3049.51,3485.03,599.90,596.25,22.69,0000 0000 0000 0000 000000
2017-09-08 08:01:26,0.01,0.15,0.00,24.10,27.50,30.10,13.87,40.89,1020.98,2032.00,3499.99,3049.27,3485.00,600.23,596.64,22.74,0000 0000 0000 0000 000000
2017-09-08 08:06:28,-0.01,0.15,0.00,24.09,27.50,30.09,13.83,40.73,1021.01,2032.00,3499.98,3049.29,3485.00,600.13,596.46,22.79,0000 0000 0000 0000 000000
2017-09-08 08:11:29,0.00,0.15,0.00,24.07,27.50,30.09,13.84,41.37,1021.01,2032.01,3499.94,3049.22,3485.00,600.37,596.84,22.84,0000 0000 0000 0000 000000
2017-09-08 08:16:30,0.00,0.15,0.00,24.08,27.50,30.09,13.83,41.16,1021.01,2032.00,3499.88,3049.04,3484.98,599.55,596.00,22.89,0000 0000 0000 0000 000000
2017-09-08 08:21:31,0.00,0.15,0.00,24.08,27.50,30.09,13.85,40.92,1021.01,2032.00,3499.64,3049.03,3484.99,599.99,596.47,22.94,0000 0000 0000 0000 000000
2017-09-08 08:26:33,0.01,0.15,0.00,24.08,27.50,30.10,13.89,40.81,1021.02,2032.00,3499.22,3049.04,3484.98,600.18,596.56,22.99,0000 0000 0000 0000 000000
2017-09-08 08:31:34,0.00,0.15,0.00,24.09,27.50,30.11,13.83,40.76,1021.03,2032.01,3499.02,3049.01,3484.98,599.69,596.08,23.05,0000 0000 0000 0000 000000
2017-09-08 08:36:35,0.00,0.15,0.00,24.08,27.50,30.10,13.78,40.90,1021.04,2032.00,3499.03,3049.01,3484.97,599.89,596.42,23.10,0000 0000 0000 0000 000000
2017-09-08 08:41:37,0.00,0.15,0.00,24.07,27.50,30.09,13.83,40.78,1021.04,2032.01,3499.06,3049.03,3484.97,600.20,596.76,23.15,0000 0000 0000 0000 000000
2017-09-08 08:46:38,-0.00,0.15,0.00,24.10,27.50,30.09,13.81,40.93,1021.04,2032.01,3499.13,3049.05,3484.96,600.14,596.52,23.20,0000 0000 0000 0000 000000
2017-09-08 08:51:39,0.00,0.15,0.00,24.12,27.50,30.10,13.87,40.93,1021.02,2032.01,3499.02,3049.01,3484.96,600.21,596.50,23.25,0000 0000 0000 0000 000000
2017-09-08 08:56:41,0.00,0.15,0.00,24.09,27.50,30.10,13.89,41.06,1021.02,2032.00,3499.01,3049.00,3484.73,600.17,596.60,23.30,0000 0000 0000 0000 000000
2017-09-08 09:01:42,0.00,0.15,0.00,24.09,27.50,30.08,13.84,40.88,1021.16,2032.00,3499.00,3049.01,3484.69,600.02,596.50,23.35,0000 0000 0000 0000 000000
2017-09-08 09:06:43,0.00,0.15,0.00,24.05,27.50,30.10,13.84,40.94,1021.26,2032.01,3499.00,3049.00,3484.73,599.93,596.51,23.40,0000 0000 0000 0000 000000
2017-09-08 09:11:44,0.00,0.15,0.00,24.05,27.50,30.09,13.86,41.08,1021.43,2032.00,3499.00,3049.01,3484.38,600.22,596.89,23.45,0000 0000 0000 0000 000000
2017-09-08 09:16:46,0.00,0.15,0.00,24.08,27.50,30.08,13.86,41.20,1021.46,2032.00,3499.00,3049.00,3484.29,600.06,596.89,23.50,0000 0000 0000 0000 000000
2017-09-08 09:21:47,0.00,0.15,0.00,24.07,27.50,30.08,13.82,41.06,1021.46,2032.00,3499.00,3049.00,3484.29,600.10,596.86,23.55,0000 0000 0000 0000 000000
2017-09-08 09:26:48,0.00,0.15,0.00,24.07,27.50,30.08,13.84,41.13,1021.49,2032.00,3499.00,3049.00,3484.05,599.83,596.50,23.60,0000 0000 0000 0000 000000
2017-09-08 09:31:50,0.00,0.15,0.00,24.11,27.50,30.10,13.84,41.00,1021.50,2032.00,3499.00,3049.00,3484.04,599.84,596.49,23.65,0000 0000 0000 0000 000000
2017-09-08 09:36:51,0.00,0.15,0.00,24.08,27.50,30.09,13.82,41.02,1021.50,2032.00,3498.97,3049.00,3484.04,600.02,596.69,23.70,0000 0000 0000 0000 000000
2017-09-08 09:41:52,0.00,0.15,0.00,24.05,27.50,30.09,13.83,41.01,1021.50,2032.01,3498.97,3049.01,3484.10,599.86,596.49,23.75,0000 0000 0000 0000 000000
2017-09-08 09:46:53,0.00,0.15,0.00,24.09,27.50,30.09,13.84,41.00,1021.50,2032.01,3498.98,3049.00,3484.08,599.95,596.71,23.80,0000 0000 0000 0000 000000
2017-09-08 09:51:55,0.00,0.15,0.00,24.09,27.50,30.09,13.82,41.14,1021.50,2032.00,3498.97,3049.00,3484.03,599.74,596.45,23.85,0000 0000 0000 0000 000000
2017-09-08 09:56:56,0.00,0.15,0.00,24.06,27.50,30.09,13.82,41.17,1021.50,2032.00,3498.96,3049.00,3484.00,599.98,596.83,23.90,0000 0000 0000 0000 000000
2017-09-08 10:01:58,0.00,0.15,0.00,24.08,27.50,30.09,13.80,40.92,1021.52,2032.00,3498.87,3049.00,3484.01,599.69,596.34,23.95,0000 0000 0000 0000 000000
2017-09-08 10:06:59,-0.00,0.15,0.00,24.06,27.50,30.08,13.77,40.93,1021.52,2032.01,3498.82,3049.00,3484.02,599.95,596.68,24.00,0000 0000 0000 0000 000000
2017-09-08 10:12:01,-0.00,0.15,0.00,24.09,27.50,30.09,13.76,40.89,1021.52,2032.03,3498.96,3049.00,3484.02,599.54,596.38,24.05,0000 0000 0000 0000 000000
2017-09-08 10:17:02,-0.00,0.15,0.00,24.09,27.50,30.09,13.85,40.99,1021.51,2032.01,3498.93,3049.00,3484.01,599.88,596.55,24.10,0000 0000 0000 0000 000000
2017-09-08 10:22:04,-0.00,0.15,0.00,24.07,27.50,30.09,13.87,40.98,1021.51,2032.01,3498.94,3049.00,3484.01,599.84,596.64,24.15,0000 0000 0000 0000 000000
2017-09-08 10:27:05,0.00,0.15,0.00,24.07,27.50,30.10,13.83,40.99,1021.52,2032.00,3498.86,3049.00,3484.00,600.42,597.20,24.20,0000 0000 0000 0000 000000
2017-09-08 10:32:06,0.00,0.16,0.00,24.07,27.50,30.09,13.80,40.97,1021.53,2032.00,3498.60,3049.00,3484.00,599.81,596.62,24.25,0000 0000 0000 0000 000000
2017-09-08 10:37:07,0.00,0.16,0.00,24.05,27.50,30.09,13.89,41.02,1021.55,2032.00,3498.23,3049.00,3484.00,600.62,597.35,24.30,0000 0000 0000 0000 000000
2017-09-08 10:42:08,-0.00,0.16,0.00,24.06,27.50,30.09,13.90,41.08,1021.63,2032.00,3498.37,3049.00,3484.00,600.35,597.15,24.35,0000 0000 0000 0000 000000
2017-09-08 10:47:10,0.00,0.16,0.00,24.05,27.50,30.09,13.89,41.12,1021.82,2032.00,3498.45,3049.00,3484.00,599.97,596.93,24.40,0000 0000 0000 0000 000000
2017-09-08 10:52:11,-0.00,0.15,0.00,24.07,27.50,30.09,13.89,40.95,1021.81,2032.00,3498.69,3049.00,3484.00,600.00,596.96,24.45,0000 0000 0000 0000 000000
2017-09-08 10:57:12,0.01,0.16,0.00,24.07,27.50,30.09,13.84,40.92,1021.89,2032.00,3498.28,3049.00,3484.00,600.24,597.21,24.50,0000 0000 0000 0000 000000
2017-09-08 11:02:13,0.00,0.16,0.00,24.09,27.50,30.10,13.80,40.98,1021.97,2032.00,3498.10,3049.00,3484.00,599.75,596.67,24.55,0000 0000 0000 0000 000000
2017-09-08 11:07:14,0.00,0.16,0.00,24.11,27.50,30.10,13.88,41.05,1021.99,2032.00,3498.02,3049.00,3484.00,600.07,597.04,24.60,0000 0000 0000 0000 000000
2017-09-08 11:12:16,-0.00,0.16,0.00,24.08,27.50,30.09,13.82,41.03,1021.99,2032.00,3498.10,3049.00,3483.99,600.04,597.02,24.65,0000 0000 0000 0000 000000
2017-09-08 11:17:16,0.00,0.16,0.00,24.08,27.50,30.09,13.76,41.07,1021.99,2032.00,3498.04,3049.00,3483.99,599.67,596.68,24.70,0000 0000 0000 0000 000000
2017-09-08 11:22:18,0.00,0.16,0.00,24.07,27.50,30.08,13.83,41.15,1021.99,2032.00,3498.02,3049.00,3483.98,600.02,597.03,24.75,0000 0000 0000 0000 000000
2017-09-08 11:27:19,0.00,0.16,0.00,24.12,27.50,30.10,13.85,41.03,1021.99,2032.00,3498.00,3048.99,3483.96,599.99,596.80,24.80,0000 0000 0000 0000 000000
2017-09-08 11:32:21,0.00,0.16,0.00,24.16,27.50,30.11,13.86,41.26,1021.99,2032.00,3498.00,3048.98,3483.89,600.03,596.86,24.85,0000 0000 0000 0000 000000
2017-09-08 11:37:22,0.00,0.16,0.00,24.08,27.50,30.08,13.87,41.18,1021.99,2032.00,3498.00,3048.99,3483.89,600.08,597.01,24.90,0000 0000 0000 0000 000000
2017-09-08 11:42:23,0.00,0.16,0.00,24.12,27.50,30.11,13.86,40.96,1021.99,2032.00,3498.00,3048.98,3483.86,600.13,596.85,24.95,0000 0000 0000 0000 000000
2017-09-08 11:47:24,0.00,0.16,0.00,24.11,27.50,30.10,13.85,41.10,1022.00,2032.00,3498.00,3048.99,3483.92,599.77,596.78,25.00,0000 0000 0000 0000 000000
2017-09-08 11:52:26,0.00,0.16,0.00,24.09,27.50,30.10,13.82,41.01,1022.00,2032.00,3497.99,3048.97,3483.90,600.09,597.19,25.05,0000 0000 0000 0000 000000
2017-09-08 11:57:27,0.00,0.16,0.00,24.09,27.50,30.09,13.85,41.08,1022.01,2032.00,3497.98,3048.98,3483.86,599.70,596.60,25.10,0000 0000 0000 0000 000000
2017-09-08 12:02:28,0.00,0.16,0.00,24.09,27.50,30.09,13.84,41.04,1022.02,2032.00,3497.99,3048.99,3483.86,599.79,596.83,25.15,0000 0000 0000 0000 000000
2017-09-08 12:07:29,0.00,0.16,0.00,24.07,27.50,30.10,13.83,41.13,1022.07,2032.00,3497.98,3048.96,3483.73,600.06,597.07,25.20,0000 0000 0000 0000 000000
2017-09-08 12:12:31,-0.00,0.16,0.00,24.06,27.50,30.09,13.84,41.05,1022.18,2032.00,3497.99,3048.98,3483.80,600.17,597.26,25.25,0000 0000 0000 0000 000000
2017-09-08 12:17:32,0.00,0.16,0.00,24.09,27.50,30.09,13.88,41.00,1022.31,2032.00,3497.99,3048.99,3483.83,600.25,597.36,25.30,0000 0000 0000 0000 000000
2017-09-08 12:22:33,0.00,0.16,0.00,24.09,27.50,30.09,13.86,40.93,1022.39,2032.00,3497.99,3048.99,3483.91,599.97,597.29,25.35,0000 0000 0000 0000 000000
2017-09-08 12:27:35,0.00,0.16,0.00,24.07,27.49,30.08,13.80,41.08,1022.45,2032.00,3497.99,3048.98,3483.79,599.92,597.21,25.40,0000 0000 0000 0000 000000
2017-09-08 12:32:36,0.01,0.16,0.00,24.05,27.49,30.08,13.94,41.09,1022.47,2032.01,3497.62,3048.98,3483.52,600.55,597.86,25.45,0000 0000 0000 0000 000000
2017-09-08 12:37:38,0.01,0.16,0.00,24.07,27.48,30.10,13.90,41.22,1022.48,2032.02,3497.08,3048.90,3483.26,599.80,597.13,25.50,0000 0000 0000 0000 000000
2017-09-08 12:42:39,0.00,0.16,0.00,24.12,27.48,30.10,13.83,41.06,1022.48,2032.03,3497.03,3048.92,3483.23,600.07,597.35,25.55,0000 0000 0000 0000 000000
2017-09-08 12:47:40,-0.00,0.16,0.00,24.09,27.48,30.09,13.85,41.07,1022.48,2032.01,3497.17,3048.95,3483.08,600.03,597.30,25.60,0000 0000 0000 0000 000000
2017-09-08 12:52:41,0.00,0.16,0.00,24.07,27.47,30.09,13.90,41.23,1022.49,2032.01,3497.09,3048.93,3483.09,600.34,597.58,25.65,0000 0000 0000 0000 000000
2017-09-08 12:57:43,-0.00,0.16,0.00,24.10,27.47,30.08,13.86,41.13,1022.49,2032.04,3497.07,3048.96,3483.25,599.74,596.95,25.70,0000 0000 0000 0000 000000